Flag for U.S.A. Weather past 2 weeks in Dayton, Ohio, U.S.A.

Now
44 °F

Clear.


Feels Like: 42 °F
Forecast: 46 / 61 °F
Wind: 5 mph from Southwest

Location: Dayton / Wright-Patterson Air Force Base

Current Time: Oct 20, 2014 at 12:54:29 AM

Latest Report: Oct 19, 2014 at 10:58 PM


Visibility: 10 mi

Pressure: 30.08 "Hg

Humidity: 74%

Dew point: 36 °F

Location of DaytonLocation

Historic Weather in Dayton — Graph

°F

Dayton temperature yesterday

Maximum temperature yesterday: 56 °F (at 4:58 PM)
Minimum temperature yesterday: 38 °F (at 7:58 AM)
Average temperature yesterday: 47 °F

Past Weeks' High & Low Weather Summary

 TemperatureHumidityPressure
High76 °F (Oct 13, 2:58 PM)100% (Oct 10, 1:58 AM)30.26 "Hg (Oct 10, 1:58 AM)
Low38 °F (Oct 19, 7:58 AM)32% (Oct 8, 4:58 PM)29.60 "Hg (Oct 14, 12:58 PM)
Average55 °F80%29.93 "Hg
* Reported Oct 4 10:58 PM — Oct 19 10:58 PM, Dayton, Weather by CustomWeather, © 2014

Note: Actual official high and low records may vary slightly from our data, if they occured in-between our weather recording intervals... More about our weather records

Advertising

Dayton weather history for previous 24 hours

 ConditionsComfort  
Time TempWeatherWind HumidityBarometerVisibility
10:58 PM
Oct 19
44 °FClear.5 mph74%30.08 "Hg10 mi
9:58 PM43 °FClear.3 mph76%30.09 "Hg10 mi
8:58 PM47 °FClear.1 mph69%30.10 "Hg10 mi
7:58 PM48 °FPassing clouds.6 mph65%30.12 "Hg10 mi
6:58 PM49 °FPartly sunny.7 mph62%30.12 "Hg10 mi
5:58 PM54 °FPartly sunny.6 mph50%30.13 "Hg10 mi
4:58 PM56 °FPartly sunny.6 mph44%30.14 "Hg10 mi
3:58 PM55 °FPartly sunny.9 mph45%30.16 "Hg10 mi
2:58 PM54 °FPartly sunny.5 mph49%30.18 "Hg10 mi
1:58 PM53 °FPartly sunny.5 mph53%30.22 "Hg10 mi
12:58 PM50 °FPartly sunny.5 mph60%30.24 "Hg10 mi
11:58 AM48 °FPartly sunny.6 mph65%30.26 "Hg10 mi
10:58 AM45 °FScattered clouds.1 mph68%30.26 "Hg10 mi
9:58 AM43 °FScattered clouds.5 mph74%30.25 "Hg10 mi
8:58 AM39 °FSunny.No wind88%30.24 "Hg10 mi
7:58 AM38 °FClear.2 mph85%30.22 "Hg10 mi
6:58 AM42 °FPassing clouds.6 mph82%30.21 "Hg10 mi
5:58 AM43 °FOvercast.6 mph82%30.20 "Hg10 mi
4:58 AM44 °FOvercast.6 mph87%30.19 "Hg10 mi
3:58 AM45 °FOvercast.8 mph87%30.18 "Hg10 mi
2:58 AM46 °FOvercast.9 mph87%30.16 "Hg10 mi
1:58 AM47 °FMostly cloudy.8 mph88%30.15 "Hg10 mi
12:58 AM47 °FOvercast.5 mph90%30.14 "Hg10 mi
Weather by CustomWeather, © 2014

See weather overviewHow to use our weather pages